TimeEST,TemperatureF,Dew PointF,Humidity,Sea Level PressureIn,VisibilityMPH,Wind Direction,Wind SpeedMPH,Gust SpeedMPH,PrecipitationIn,Events,Conditions,WindDirDegrees,DateUTC
12:52 AM,36.0,21.0,55,30.55,10.0,NE,6.9,-,N/A,,Overcast,50,2012-12-01 05:52:00
1:52 AM,36.0,21.9,57,30.56,10.0,ENE,6.9,-,N/A,,Overcast,60,2012-12-01 06:52:00
2:52 AM,36.0,23.0,59,30.56,10.0,ENE,8.1,-,N/A,,Overcast,60,2012-12-01 07:52:00
3:52 AM,36.0,23.0,59,30.54,10.0,ENE,10.4,-,N/A,,Overcast,60,2012-12-01 08:52:00
4:52 AM,37.0,24.1,59,30.55,10.0,East,6.9,-,N/A,,Overcast,80,2012-12-01 09:52:00
5:52 AM,37.0,25.0,62,30.55,10.0,East,5.8,-,N/A,,Overcast,90,2012-12-01 10:52:00
6:52 AM,37.9,26.1,62,30.58,10.0,ENE,9.2,-,N/A,,Overcast,70,2012-12-01 11:52:00
7:52 AM,39.0,28.0,65,30.60,10.0,East,8.1,-,0.00,,Overcast,80,2012-12-01 12:52:00
8:44 AM,37.4,32.0,81,30.60,9.0,East,9.2,-,0.00,Rain,Light Rain,100,2012-12-01 13:44:00
8:52 AM,37.9,32.0,79,30.61,9.0,East,6.9,-,0.00,Rain,Light Rain,100,2012-12-01 13:52:00
9:31 AM,37.4,33.8,87,30.61,10.0,East,6.9,-,0.01,Rain,Light Rain,100,2012-12-01 14:31:00
9:52 AM,39.0,33.1,79,30.62,10.0,East,8.1,-,0.01,Rain,Light Rain,100,2012-12-01 14:52:00
10:08 AM,39.2,33.8,81,30.60,10.0,ESE,9.2,-,0.00,Rain,Light Rain,110,2012-12-01 15:08:00
10:52 AM,39.9,33.1,77,30.59,10.0,ESE,8.1,-,0.01,Rain,Light Rain,110,2012-12-01 15:52:00
11:52 AM,39.9,34.0,79,30.57,10.0,ESE,9.2,-,0.00,,Overcast,110,2012-12-01 16:52:00
12:52 PM,41.0,35.1,79,30.55,10.0,East,8.1,-,0.00,Rain,Light Rain,100,2012-12-01 17:52:00
1:52 PM,41.0,35.1,79,30.55,10.0,ESE,5.8,-,0.01,Rain,Light Rain,120,2012-12-01 18:52:00
2:52 PM,41.0,36.0,82,30.55,10.0,ESE,6.9,-,0.00,,Overcast,120,2012-12-01 19:52:00
3:52 PM,42.1,36.0,79,30.55,10.0,ESE,4.6,-,N/A,,Overcast,110,2012-12-01 20:52:00
4:11 PM,42.8,35.6,76,30.55,10.0,ESE,8.1,-,N/A,,Overcast,110,2012-12-01 21:11:00
4:32 PM,42.8,35.6,76,30.55,10.0,ESE,4.6,-,N/A,,Overcast,120,2012-12-01 21:32:00
4:52 PM,42.1,37.0,82,30.56,10.0,SE,4.6,-,N/A,,Overcast,130,2012-12-01 21:52:00
5:52 PM,43.0,39.0,86,30.56,10.0,ESE,5.8,-,0.00,,Overcast,120,2012-12-01 22:52:00
6:16 PM,44.6,37.4,76,30.56,10.0,ESE,5.8,-,N/A,,Overcast,110,2012-12-01 23:16:00
6:52 PM,45.0,39.0,80,30.57,10.0,ESE,10.4,-,N/A,,Overcast,110,2012-12-01 23:52:00
7:52 PM,45.0,39.9,82,30.55,10.0,ESE,8.1,-,N/A,,Overcast,110,2012-12-02 00:52:00
8:52 PM,46.0,39.9,79,30.53,10.0,SE,9.2,-,N/A,,Overcast,140,2012-12-02 01:52:00
9:52 PM,46.9,41.0,80,30.53,10.0,ESE,9.2,18.4,N/A,,Overcast,120,2012-12-02 02:52:00
10:15 PM,46.4,41.0,81,30.51,10.0,SE,9.2,17.3,N/A,,Overcast,130,2012-12-02 03:15:00
10:52 PM,46.9,41.0,80,30.51,10.0,Variable,6.9,-,N/A,,Overcast,0,2012-12-02 03:52:00
11:52 PM,46.9,41.0,80,30.50,10.0,ESE,9.2,-,N/A,,Overcast,120,2012-12-02 04:52:00